TimeCST,TemperatureF,Dew PointF,Humidity,Sea Level PressureIn,VisibilityMPH,Wind Direction,Wind SpeedMPH,Gust SpeedMPH,PrecipitationIn,Events,Conditions,WindDirDegrees,DateUTC
12:54 AM,42.1,39.9,92,30.11,9.0,Calm,Calm,-,N/A,,Clear,0,2012-11-20 06:54:00
1:54 AM,41.0,37.9,89,30.11,10.0,Calm,Calm,-,N/A,,Clear,0,2012-11-20 07:54:00
2:54 AM,39.0,37.0,93,30.10,6.0,Calm,Calm,-,N/A,,Clear,0,2012-11-20 08:54:00
3:54 AM,39.0,36.0,89,30.09,6.0,Calm,Calm,-,N/A,,Clear,0,2012-11-20 09:54:00
4:29 AM,39.2,37.4,93,30.09,1.2,Calm,Calm,-,N/A,,Clear,0,2012-11-20 10:29:00
4:37 AM,37.4,37.4,100,30.09,0.5,Calm,Calm,-,N/A,Fog,Fog,0,2012-11-20 10:37:00
4:54 AM,37.9,36.0,93,30.09,0.5,Calm,Calm,-,N/A,Fog,Fog,0,2012-11-20 10:54:00
5:21 AM,37.4,37.4,100,30.09,2.0,Calm,Calm,-,N/A,,Clear,0,2012-11-20 11:21:00
5:30 AM,37.4,35.6,93,30.09,4.0,Calm,Calm,-,N/A,,Clear,0,2012-11-20 11:30:00
5:36 AM,37.4,35.6,93,30.08,1.8,Calm,Calm,-,N/A,,Clear,0,2012-11-20 11:36:00
5:46 AM,37.4,35.6,93,30.08,3.0,Calm,Calm,-,N/A,,Clear,0,2012-11-20 11:46:00
5:54 AM,37.0,36.0,96,30.09,4.0,Calm,Calm,-,N/A,,Clear,0,2012-11-20 11:54:00
6:03 AM,37.4,35.6,93,30.08,2.5,Calm,Calm,-,N/A,,Clear,0,2012-11-20 12:03:00
6:11 AM,37.4,35.6,93,30.08,5.0,Calm,Calm,-,N/A,,Clear,0,2012-11-20 12:11:00
6:32 AM,37.4,35.6,93,30.09,1.8,Calm,Calm,-,N/A,,Clear,0,2012-11-20 12:32:00
6:42 AM,37.4,35.6,93,30.09,3.0,Calm,Calm,-,N/A,,Clear,0,2012-11-20 12:42:00
6:51 AM,37.4,35.6,93,30.10,2.5,Calm,Calm,-,N/A,,Clear,0,2012-11-20 12:51:00
6:54 AM,36.0,35.1,97,30.10,3.0,Calm,Calm,-,N/A,,Clear,0,2012-11-20 12:54:00
6:59 AM,37.4,35.6,93,30.10,1.8,Calm,Calm,-,N/A,,Clear,0,2012-11-20 12:59:00
7:10 AM,37.4,35.6,93,30.10,3.0,Calm,Calm,-,N/A,,Clear,0,2012-11-20 13:10:00
7:54 AM,42.1,39.9,92,30.11,4.0,Calm,Calm,-,N/A,,Clear,0,2012-11-20 13:54:00
8:54 AM,48.0,44.1,86,30.12,6.0,WSW,4.6,-,N/A,,Clear,240,2012-11-20 14:54:00
9:54 AM,50.0,44.1,80,30.12,8.0,West,6.9,-,N/A,,Clear,280,2012-11-20 15:54:00
10:54 AM,53.1,45.0,74,30.12,8.0,Calm,Calm,-,N/A,,Clear,0,2012-11-20 16:54:00
11:54 AM,57.0,46.9,69,30.09,8.0,Calm,Calm,-,N/A,,Clear,0,2012-11-20 17:54:00
12:54 PM,57.9,46.0,65,30.09,9.0,WNW,4.6,-,N/A,,Clear,300,2012-11-20 18:54:00
1:54 PM,60.1,46.0,60,30.09,9.0,WNW,8.1,-,N/A,,Clear,290,2012-11-20 19:54:00
2:54 PM,61.0,48.0,62,30.09,9.0,NW,5.8,-,N/A,,Overcast,320,2012-11-20 20:54:00
3:54 PM,60.1,46.9,62,30.11,10.0,WNW,6.9,-,N/A,,Clear,290,2012-11-20 21:54:00
4:54 PM,54.0,46.0,75,30.13,8.0,NW,6.9,-,N/A,,Clear,310,2012-11-20 22:54:00
5:54 PM,52.0,46.0,80,30.16,7.0,NW,5.8,-,N/A,,Clear,320,2012-11-20 23:54:00
6:54 PM,52.0,46.0,80,30.17,6.0,West,5.8,-,N/A,,Haze,280,2012-11-21 00:54:00
7:54 PM,48.9,45.0,86,30.18,5.0,WNW,5.8,-,N/A,,Clear,300,2012-11-21 01:54:00
8:54 PM,45.0,43.0,93,30.19,4.0,Calm,Calm,-,N/A,,Clear,0,2012-11-21 02:54:00
9:32 PM,42.8,41.0,93,30.19,2.0,SW,4.6,-,N/A,,Clear,220,2012-11-21 03:32:00
9:54 PM,39.9,39.9,100,30.21,2.0,WNW,5.8,-,N/A,,Clear,300,2012-11-21 03:54:00
9:59 PM,39.2,39.2,100,30.20,1.8,WNW,4.6,-,N/A,,Scattered Clouds,300,2012-11-21 03:59:00
10:03 PM,42.8,41.0,93,30.20,0.8,WNW,3.5,-,N/A,,Mist,290,2012-11-21 04:03:00
10:54 PM,42.1,42.1,100,30.20,0.2,Calm,Calm,-,N/A,Fog,Fog,0,2012-11-21 04:54:00
11:54 PM,43.0,42.1,97,30.21,0.2,Calm,Calm,-,N/A,Fog,Fog,0,2012-11-21 05:54:00